Jacksonville, FL

7:20 PM EST on January 19, 2018 (GMT -0500)
Jacksonville International

Weather History for KJAX - July, 2013

Change the Weather History Date:

Tuesday, July 2, 2013

  Actual Average Record
Temperature  
Mean Temperature 80 °F 82 °F  
Max Temperature 88 °F 91 °F 100 °F (1902)
Min Temperature 72 °F 72 °F 65 °F (2000)
Degree Days  
Heating Degree Days 0 0  
Month to date heating degree days 0 0  
Since 1 June heating degree days 0 0  
Since 1 July heating degree days 0 0  
Cooling Degree Days 15 17  
Month to date cooling degree days 29 34  
Year to date cooling degree days 938 967  
Since 1 June cooling degree days 502 483  
Growing Degree Days 30 (Base 50)    
Moisture  
Dew Point 72 °F    
Average Humidity 82    
Maximum Humidity 100    
Minimum Humidity 63    
Precipitation  
Precipitation 0.09 in 0.21 in 2.30 in (1990)
Month to date precipitation 0.53 0.42  
Year to date precipitation 22.29 22.43  
Snow  
Snow 0.00 in 0.00 in 0.00 in (2002)
Month to date snowfall 0.0 0.0  
Since 1 June snowfall 0.0 0.0  
Since 1 July snowfall 0.0 0.0  
Snow Depth 0.00 in    
Sea Level Pressure  
Sea Level Pressure 30.06 in    
Wind  
Wind Speed 7 mph (SSE)    
Max Wind Speed 23 mph    
Max Gust Speed 29 mph    
Visibility 10 miles    
Events Rain , Thunderstorm    
T = Trace of Precipitation, MM = Missing Value Source: NWS Daily Summary

Daily Weather History Graph

Daily Weather History Graph

Search for Another Location

Airport or City:

Trip Planner

Search our weather history database for the weather conditions in past years. The results will help you decide how hot, cold, wet, or windy it might be!

Date:

Astronomy

Jul. 02, 2013 Rise Set
Actual Time 6:28 AM EDT 8:33 PM EDT
Civil Twilight 6:01 AM EDT 9:00 PM EDT
Nautical Twilight 5:27 AM EDT 9:33 PM EDT
Astronomical Twilight 4:51 AM EDT 10:09 PM EDT
Moon 2:18 AM EDT (7/2) 3:55 PM EDT (7/2)
Length of Visible Light 14h 59m
Length of Day
14h 04m
Waning Crescent, 26% of the Moon is Illuminated
Jul 2
Waning Crescent
Jul 8
New
Jul 15
First Quarter
Jul 22
Full
Jul 29
Last Quarter

Hourly Weather History & Observations

Time (EDT) Temp. Heat Index Dew Point Humidity Pressure Visibility Wind Dir Wind Speed Gust Speed Precip Events Conditions
12:56 AM 73.0 °F - 72.0 °F 96% 30.02 in 10.0 mi SSE 8.1 mph - 0.01 in   Overcast
1:56 AM 73.0 °F - 73.0 °F 100% 30.01 in 10.0 mi South 3.5 mph - 0.01 in   Overcast
2:56 AM 73.0 °F - 72.0 °F 96% 30.00 in 10.0 mi SE 3.5 mph - 0.00 in Rain Light Rain
3:37 AM 73.4 °F - 71.6 °F 94% 30.00 in 10.0 mi SSE 4.6 mph - 0.01 in   Overcast
3:56 AM 73.0 °F - 72.0 °F 96% 30.00 in 9.0 mi SE 4.6 mph - 0.01 in Rain Light Rain
4:56 AM 73.0 °F - 72.0 °F 96% 30.00 in 10.0 mi SE 5.8 mph - 0.00 in   Overcast
5:21 AM 71.6 °F - 71.6 °F 100% 30.00 in 10.0 mi SE 6.9 mph - N/A   Overcast
5:56 AM 73.0 °F - 71.1 °F 93% 30.01 in 10.0 mi SSE 4.6 mph - N/A   Overcast
6:56 AM 73.9 °F - 72.0 °F 93% 30.03 in 8.0 mi SE 6.9 mph - 0.01 in Rain Light Rain
7:56 AM 73.9 °F - 72.0 °F 93% 30.04 in 10.0 mi SE 6.9 mph - 0.01 in   Overcast
8:56 AM 75.0 °F - 72.0 °F 90% 30.05 in 10.0 mi SE 11.5 mph - N/A   Overcast
9:56 AM 77.0 °F - 73.0 °F 88% 30.06 in 10.0 mi SSE 12.7 mph - N/A   Overcast
10:56 AM 80.1 °F 84.2 °F 73.0 °F 79% 30.07 in 10.0 mi South 10.4 mph 18.4 mph N/A   Overcast
11:56 AM 81.0 °F 85.8 °F 73.0 °F 77% 30.07 in 10.0 mi South 12.7 mph 19.6 mph N/A   Overcast
12:56 PM 84.0 °F 91.2 °F 73.9 °F 72% 30.06 in 10.0 mi South 6.9 mph - N/A   Mostly Cloudy
1:56 PM 84.0 °F 90.2 °F 73.0 °F 69% 30.06 in 10.0 mi South 8.1 mph - N/A   Mostly Cloudy
2:56 PM 88.0 °F 95.6 °F 73.0 °F 61% 30.04 in 10.0 mi SSE 15.0 mph 20.7 mph N/A   Mostly Cloudy
3:42 PM 84.2 °F 89.6 °F 71.6 °F 66% 30.05 in 10.0 mi SE 16.1 mph - N/A Thunderstorm Thunderstorm
3:56 PM 80.1 °F 83.8 °F 72.0 °F 76% 30.05 in 10.0 mi SW 9.2 mph 19.6 mph N/A Thunderstorm Thunderstorm
4:37 PM 78.8 °F - 71.6 °F 78% 30.07 in 10.0 mi SSE 16.1 mph 27.6 mph N/A Thunderstorm Thunderstorm
4:56 PM 78.1 °F - 71.1 °F 79% 30.08 in 10.0 mi South 10.4 mph - 0.00 in Rain , Thunderstorm Light Thunderstorms and Rain
5:17 PM 75.2 °F - 71.6 °F 89% 30.07 in 9.0 mi SW 8.1 mph 17.3 mph 0.00 in Rain Light Rain
5:56 PM 75.9 °F - 73.0 °F 91% 30.06 in 10.0 mi SSE 5.8 mph - 0.00 in   Overcast
6:56 PM 75.0 °F - 73.0 °F 94% 30.11 in 10.0 mi South 5.8 mph - 0.01 in Rain Light Rain
7:56 PM 75.0 °F - 73.0 °F 94% 30.11 in 10.0 mi Calm Calm - 0.03 in   Overcast
8:56 PM 75.0 °F - 73.0 °F 94% 30.11 in 10.0 mi SSE 3.5 mph - 0.01 in   Overcast
9:56 PM 75.0 °F - 73.0 °F 94% 30.11 in 10.0 mi ESE 3.5 mph - N/A   Overcast
10:56 PM 75.0 °F - 72.0 °F 90% 30.11 in 10.0 mi SE 8.1 mph - N/A   Mostly Cloudy
11:56 PM 73.9 °F - 72.0 °F 93% 30.12 in 10.0 mi ESE 5.8 mph - N/A   Mostly Cloudy